This is the latest recevied weather packets stored in our database for station/object LU3MCV-13. If no packets are shown the sender has not sent any weather packets the latest 10 day(s).
| Time | Temp. | Humidity | Pressure | Rain* | Wind** | Luminosity | Snow |
|---|---|---|---|---|---|---|---|
| 1778107398 | 17.78° C | 13% | 926.8 hPa | - | - | - | - |
| 1778106498 | 18.89° C | 13% | 926.3 hPa | - | - | - | - |
| 1778105598 | 18.89° C | 13% | 926.3 hPa | - | - | - | - |
| 1778104698 | 18.89° C | 13% | 925.8 hPa | - | - | - | - |
| 1778103799 | 18.89° C | 13% | 926 hPa | - | - | - | - |
| 1778102898 | 20° C | 11% | 925.7 hPa | - | - | - | - |
| 1778101998 | 20° C | 11% | 926 hPa | - | - | - | - |
| 1778101099 | 20° C | 10% | 926.1 hPa | - | - | - | - |
| 1778100198 | 21.11° C | 10% | 925.8 hPa | - | - | - | - |
| 1778099299 | 21.11° C | 10% | 925.1 hPa | - | - | - | - |
| 1778098398 | 21.11° C | 8% | 924.2 hPa | - | - | - | - |
| 1778097498 | 22.22° C | 8% | 924.4 hPa | - | - | - | - |
| 1778096598 | 22.22° C | 8% | 924.9 hPa | - | - | - | - |
| 1778096590 | 22.22° C | 10% | 924.9 hPa | - | - | - | - |
| 1778095690 | 22.22° C | 8% | 924.8 hPa | - | - | - | - |
| 1778094790 | 22.22° C | 8% | 924.7 hPa | - | - | - | - |
| 1778093890 | 22.78° C | 8% | 924.9 hPa | - | - | - | - |
| 1778092990 | 23.89° C | 8% | 924.3 hPa | - | - | - | - |
| 1778092090 | 23.89° C | 8% | 924 hPa | - | - | - | - |
| 1778091190 | 23.89° C | 8% | 923.1 hPa | - | - | - | - |
| 1778090290 | 23.89° C | 12% | 923.8 hPa | - | - | - | - |
| 1778089391 | 23.89° C | 20% | 923.9 hPa | - | - | - | - |
| 1778088490 | 23.89° C | 20% | 924 hPa | - | - | - | - |
| 1778087590 | 23.89° C | 20% | 923.6 hPa | - | - | - | - |
| 1778086690 | 23.89° C | 19% | 923.5 hPa | - | - | - | - |
* Rain since midnight (hover to see other rain measurements)
** Current wind speed in m/s (hover to see current wind gust speed)